Weather History for Dublin, VA

Change the Weather History Date:

Wednesday, December 14, 2011

  Actual Average (KBCB) Record (KBCB)
Temperature  
Mean Temperature 52 °F 34 °F  
Max Temperature 59 °F 44 °F 70 °F (1984)
Min Temperature 44 °F 24 °F -4 °F (1962)
Degree Days  
Heating Degree Days 14 31  
Month to date heating degree days 411  
Since 1 July heating degree days 1591  
Cooling Degree Days 0 0  
Month to date cooling degree days 0  
Year to date cooling degree days 573  
Growing Degree Days 2 (Base 50)    
Moisture  
Dew Point 44 °F    
Average Humidity 82    
Maximum Humidity 100    
Minimum Humidity 59    
Precipitation  
Precipitation 0.00 in 0.10 in 0.83 in (1953)
Month to date precipitation 1.42  
Year to date precipitation 39.36  
Snow  
Snow 0.00 in - - ()
Month to date snowfall  
Since 1 July snowfall  
Snow Depth -    
Sea Level Pressure  
Sea Level Pressure 30.35 in    
Wind  
Wind Speed 0 mph (NE)    
Max Wind Speed 5 mph    
Max Gust Speed -    
Visibility 9 miles    
Events      
T = Trace of Precipitation, MM = Missing Value Source: NWS Daily Summary

Daily Weather History Graph

Daily Weather History Graph

Search for Another Location

Airport:

Trip Planner

Search our weather history database for the weather conditions in past years. The results will help you decide how hot, cold, wet, or windy it might be!

Date:

Astronomy

Dec. 14, 2011 Rise Set
Actual Time 7:28 AM EST 5:06 PM EST
Civil Twilight 6:59 AM EST 5:35 PM EST
Nautical Twilight 6:26 AM EST 6:07 PM EST
Astronomical Twilight 5:54 AM EST 6:39 PM EST
Moon 9:20 PM EST (12/14) 10:15 AM EST (12/14)
Length of Visible Light 10h 36m
Length of Day
9h 38m
Waning Gibbous, 83% of the Moon is Illuminated
Dec 14
Waning Gibbous
Dec 17
Last Quarter
Dec 24
New
Jan 1
First Quarter
Jan 9
Full

Hourly Weather History & Observations

Time (EST) Temp. Dew Point Humidity Pressure Visibility Wind Dir Wind Speed Gust Speed Precip Events Conditions
12:15 AM 48.2 °F 44.6 °F 87% 30.40 in 10.0 mi Calm Calm - N/A   Overcast
12:35 AM 48.2 °F 44.6 °F 87% 30.39 in 10.0 mi Calm Calm - N/A   Overcast
12:55 AM 46.4 °F 44.6 °F 93% 30.40 in 10.0 mi Calm Calm - N/A   Overcast
1:15 AM 46.4 °F 44.6 °F 93% 30.40 in 10.0 mi Calm Calm - N/A   Overcast
1:35 AM 46.4 °F 44.6 °F 93% 30.40 in 10.0 mi Calm Calm - N/A   Overcast
1:55 AM 46.4 °F 44.6 °F 93% 30.40 in 10.0 mi Calm Calm - N/A   Overcast
2:15 AM 46.4 °F 44.6 °F 93% 30.39 in 10.0 mi Calm Calm - N/A   Overcast
2:35 AM 46.4 °F 44.6 °F 93% 30.40 in 10.0 mi Calm Calm - N/A   Overcast
2:55 AM 46.4 °F 44.6 °F 93% 30.39 in 10.0 mi Calm Calm - N/A   Overcast
3:15 AM 46.4 °F 44.6 °F 93% 30.39 in 10.0 mi Calm Calm - N/A   Overcast
3:35 AM 46.4 °F 44.6 °F 93% 30.38 in 10.0 mi Calm Calm - N/A   Overcast
3:55 AM 44.6 °F 44.6 °F 100% 30.38 in 10.0 mi Calm Calm - N/A   Overcast
4:15 AM 44.6 °F 44.6 °F 100% 30.38 in 7.0 mi Calm Calm - N/A   Overcast
4:35 AM 44.6 °F 44.6 °F 100% 30.37 in 7.0 mi Calm Calm - N/A   Overcast
4:55 AM 44.6 °F 44.6 °F 100% 30.37 in 7.0 mi Calm Calm - N/A   Overcast
5:15 AM 44.6 °F 44.6 °F 100% 30.37 in 7.0 mi Calm Calm - N/A   Overcast
5:35 AM 44.6 °F 44.6 °F 100% 30.37 in 7.0 mi Calm Calm - N/A   Overcast
5:55 AM 44.6 °F 44.6 °F 100% 30.37 in 7.0 mi Calm Calm - N/A   Overcast
6:35 AM 44.6 °F 44.6 °F 100% 30.36 in 7.0 mi Calm Calm - N/A   Overcast
7:15 AM 44.6 °F 44.6 °F 100% 30.38 in 7.0 mi Calm Calm - N/A   Overcast
7:35 AM 44.6 °F 44.6 °F 100% 30.38 in 5.0 mi Calm Calm - N/A   Overcast
7:55 AM 44.6 °F 44.6 °F 100% 30.39 in 7.0 mi Calm Calm - N/A   Overcast
8:15 AM 44.6 °F 44.6 °F 100% 30.39 in 7.0 mi Calm Calm - N/A   Overcast
8:35 AM 46.4 °F 44.6 °F 93% 30.38 in 10.0 mi Calm Calm - N/A   Overcast
8:55 AM 46.4 °F 44.6 °F 93% 30.39 in 10.0 mi Calm Calm - N/A   Overcast
9:15 AM 46.4 °F 42.8 °F 87% 30.39 in 10.0 mi Calm Calm - N/A   Overcast
9:35 AM 46.4 °F 42.8 °F 87% 30.40 in 10.0 mi Calm Calm - N/A   Overcast
9:55 AM 48.2 °F 42.8 °F 82% 30.40 in 10.0 mi Calm Calm - N/A   Overcast
10:15 AM 48.2 °F 44.6 °F 87% 30.39 in 10.0 mi Calm Calm - N/A   Overcast
10:35 AM 48.2 °F 44.6 °F 87% 30.40 in 10.0 mi Calm Calm - N/A   Overcast
10:55 AM 50.0 °F 44.6 °F 82% 30.39 in 10.0 mi Calm Calm - N/A   Overcast
11:15 AM 51.8 °F 44.6 °F 76% 30.37 in 10.0 mi Calm Calm - N/A   Overcast
11:35 AM 51.8 °F 44.6 °F 76% 30.36 in 10.0 mi Calm Calm - N/A   Overcast
11:55 AM 53.6 °F 44.6 °F 72% 30.35 in 10.0 mi Calm Calm - N/A   Scattered Clouds
12:15 PM 53.6 °F 46.4 °F 77% 30.34 in 10.0 mi Calm Calm - N/A   Mostly Cloudy
12:35 PM 55.4 °F 44.6 °F 67% 30.33 in 10.0 mi NE 3.5 mph - N/A   Mostly Cloudy
1:15 PM 57.2 °F 46.4 °F 67% 30.32 in 10.0 mi ENE 4.6 mph - N/A   Clear
1:35 PM 57.2 °F 46.4 °F 67% 30.31 in 10.0 mi NE 4.6 mph - N/A   Clear
1:55 PM 57.2 °F 44.6 °F 63% 30.30 in 10.0 mi NE 4.6 mph - N/A   Clear
2:15 PM 57.2 °F 44.6 °F 63% 30.30 in 10.0 mi NE 4.6 mph - N/A   Clear
2:35 PM 57.2 °F 44.6 °F 63% 30.30 in 10.0 mi ENE 3.5 mph - N/A   Clear
2:55 PM 59.0 °F 44.6 °F 59% 30.29 in 10.0 mi NE 3.5 mph - N/A   Clear
3:15 PM 57.2 °F 44.6 °F 63% 30.29 in 10.0 mi NE 3.5 mph - N/A   Clear
3:35 PM 59.0 °F 44.6 °F 59% 30.29 in 10.0 mi NE 3.5 mph - N/A   Clear
3:55 PM 57.2 °F 46.4 °F 67% 30.29 in 10.0 mi NE 3.5 mph - N/A   Clear
4:15 PM 57.2 °F 44.6 °F 63% 30.29 in 10.0 mi NNE 3.5 mph - N/A   Clear
4:35 PM 57.2 °F 44.6 °F 63% 30.29 in 10.0 mi Calm Calm - N/A   Clear
4:55 PM 55.4 °F 44.6 °F 67% 30.30 in 10.0 mi Calm Calm - N/A   Clear
5:15 PM 53.6 °F 44.6 °F 72% 30.30 in 10.0 mi Calm Calm - N/A   Clear
5:35 PM 53.6 °F 44.6 °F 72% 30.30 in 10.0 mi ENE 3.5 mph - N/A   Clear
5:55 PM 53.6 °F 42.8 °F 67% 30.31 in 10.0 mi Calm Calm - N/A   Clear
6:15 PM 51.8 °F 42.8 °F 71% 30.31 in 10.0 mi NE 3.5 mph - N/A   Clear
6:35 PM 50.0 °F 42.8 °F 76% 30.31 in 10.0 mi Calm Calm - N/A   Clear
6:55 PM 48.2 °F 42.8 °F 82% 30.31 in 10.0 mi Calm Calm - N/A   Clear
7:15 PM 48.2 °F 41.0 °F 76% 30.31 in 10.0 mi Calm Calm - N/A   Clear
7:35 PM 48.2 °F 41.0 °F 76% 30.32 in 10.0 mi Calm Calm - N/A   Clear
8:15 PM 48.2 °F 39.2 °F 71% 30.31 in 10.0 mi Calm Calm - N/A   Clear
8:35 PM 46.4 °F 39.2 °F 76% 30.32 in 10.0 mi Calm Calm - N/A   Clear
8:55 PM 46.4 °F 39.2 °F 76% 30.31 in 10.0 mi Calm Calm - N/A   Clear
9:35 PM 44.6 °F 39.2 °F 81% 30.30 in 10.0 mi Calm Calm - N/A   Clear
9:55 PM 44.6 °F 39.2 °F 81% 30.30 in 10.0 mi Calm Calm - N/A   Clear
10:15 PM 44.6 °F 39.2 °F 81% 30.30 in 10.0 mi Calm Calm - N/A   Scattered Clouds
10:35 PM 46.4 °F 41.0 °F 81% 30.29 in 10.0 mi Calm Calm - N/A   Overcast
10:55 PM 46.4 °F 41.0 °F 81% 30.28 in 10.0 mi Calm Calm - N/A   Overcast
11:15 PM 46.4 °F 42.8 °F 87% 30.28 in 10.0 mi Calm Calm - N/A   Overcast
11:35 PM 46.4 °F 41.0 °F 81% 30.27 in 10.0 mi Calm Calm - N/A   Overcast
11:55 PM 46.4 °F 42.8 °F 87% 30.26 in 10.0 mi Calm Calm - N/A   Overcast